User: anonymous   Login
Location: Unspecified
(0.0000°N, 0.0000°E)
Time: 07:32:48
(UTC+00:00)
Language:

PCSat - Orbit

View from above orbital plane
View from above orbital plane
View from above satellite
View from above satellite

Ground track
Ground track

The orbit data is extracted from the following two-line orbital elements,

1 26931U 01043C   18115.91772757 -.00000020 +00000-0 +24233-4 0  9991
2 26931 067.0528 004.2817 0007155 281.3153 078.7144 14.30502161865007
Epoch (UTC): 25 April 2018 22:01:31
Eccentricity: 0.0007155
inclination: 67.0528°
perigee height: 785 km
apogee height: 795 km
right ascension of ascending node: 4.2817°
argument of perigee: 281.3153°
revolutions per day: 14.30502161
mean anomaly at epoch: 78.7144°
orbit number at epoch: 86500

The dashed part of the orbit path shows where the satellite is in the earth's shadow,  

DLR